This demonstration page uses our WeatherBlox Daily Observations layout. Learn more.

Left ArrowRight Arrow

39.01783, -85.05884

Hourly Observations for March 23, 2017

Temp ( °F °C ) Dew Point ( °F °C ) Humidity (%) Winds ( mph kmh ) Pressure ( in mb ) Visibility ( mi km ) Precip ( " mm )
12:52 am 00:52 Mostly Clear 32 0 19 -7.2 59 59 ENE 10 17 30.47 1032 10 16 0.00 0.00
1:52 am 01:52 Mostly Clear 32 0 19 -7.2 59 59 ENE 12 19 30.46 1032 10 16 0.00 0.00
2:52 am 02:52 Clear 31 -0.6 19 -7.2 61 61 E 14 22 30.45 1031 10 16 0.00 0.00
3:52 am 03:52 Clear 30 -1.1 19 -7.2 64 64 ENE 14 22 30.44 1031 9 14 0.00 0.00
4:52 am 04:52 Clear 30 -1.1 18 -7.8 61 61 ENE 14 22 30.45 1031 10 16 0.00 0.00
5:52 am 05:52 Partly Cloudy 29 -1.7 17 -8.3 61 61 E 10 17 30.44 1031 10 16 0.00 0.00
6:52 am 06:52 Mostly Cloudy 29 -1.7 17 -8.3 61 61 ENE 8 13 30.45 1031 10 16 0.00 0.00
7:52 am 07:52 Mostly Cloudy 28 -2.2 16 -8.9 60 60 E 5 7 30.46 1032 10 16 0.00 0.00
8:52 am 08:52 Mostly Cloudy 31 -0.6 16 -8.9 54 54 E 14 22 30.45 1031 10 16 0.00 0.00
9:52 am 09:52 Mostly Cloudy 35 1.7 15 -9.4 44 44 E 13 20 30.45 1031 10 16 0.00 0.00
10:52 am 10:52 Mostly Cloudy 39 3.9 15 -9.4 38 38 E 9 15 30.45 1031 10 16 0.00 0.00
11:52 am 11:52 Mostly Sunny 43 6.1 17 -8.3 35 35 E 10 17 30.44 1031 10 16 0.00 0.00
12:52 pm 12:52 Mostly Sunny 48 8.9 21 -6.1 34 34 ESE 9 15 30.41 1030 10 16 0.00 0.00
1:52 pm 13:52 Mostly Sunny 51 10.6 20 -6.7 29 29 SE 8 13 30.38 1029 10 16 0.00 0.00
2:52 pm 14:52 Partly Cloudy 54 12.2 23 -5 30 30 SE 10 17 30.35 1028 10 16 0.00 0.00
3:52 pm 15:52 Mostly Cloudy 57 13.9 24 -4.4 28 28 SE 10 17 30.30 1026 10 16 0.00 0.00
4:52 pm 16:52 Partly Cloudy 59 15 24 -4.4 26 26 S 10 17 30.27 1025 10 16 0.00 0.00
5:52 pm 17:52 Partly Cloudy 60 15.6 26 -3.3 27 27 SSE 8 13 30.26 1025 10 16 0.00 0.00
6:52 pm 18:52 Partly Cloudy 58 14.4 29 -1.7 33 33 SSE 10 17 30.25 1024 10 16 0.00 0.00
7:52 pm 19:52 Mostly Cloudy 56 13.3 30 -1.1 37 37 S 9 15 30.25 1024 10 16 0.00 0.00
8:52 pm 20:52 Cloudy 55 12.8 32 0 42 42 SSE 6 9 30.24 1024 10 16 0.00 0.00
9:52 pm 21:52 Cloudy 54 12.2 33 0.6 45 45 SSE 8 13 30.22 1023 10 16 0.00 0.00
10:52 pm 22:52 Mostly Cloudy 53 11.7 33 0.6 47 47 SE 7 11 30.21 1023 10 16 0.00 0.00
11:52 pm 23:52 Mostly Cloudy 51 10.6 34 1.1 52 52 S 9 15 30.20 1023 10 16 0.00 0.00

Powered by AerisWeather